Retour au catalogue

STARLINK-30919

ActifCommunicationsVLEO
NORAD 58411·PAYLOAD·🇺🇸 United States

Lancé Nov 22, 2023 depuis Cape Canaveral Space Force Station

Loading…

Prochains Passages (prochaines 24 heures)

TLE

FraisSource: CelesTrak SupGP

Époque: Sep 14, 2026, 20:53 UTC

1 58411C 23180K   26257.87062500  .00022927  00000+0  83072-3 0  2574
2 58411  43.0014  63.7022 0001532 275.4184  68.0740 15.27554143    18

Suivez STARLINK-30919 en temps réel avec AllMySat

Download on the App Store